Header for Extended Forecast Station List Page

Search by: ID | Name | Date | Parm | Value | Avg | % Avg
Sort by: ID | Name | Date | Parm | Value | Avg | % Avg

Enter search or view all records.

Click on id for station plot
#IDNameDateParmValueAvg% Avg
0HWRI1BIG LOST-AT HOWELL RANCH NEAR CHILLY09-26-2022DISCHARGE (KAF)182283
1MACI1BIG LOST-MACKAY RESERVOIR NEAR MACKAY09-26-2022INFLOW (KAF)334279
2HALI1BIG WOOD-AT HAILEY09-26-2022DISCHARGE (KAF)344086
3MAGI1BIG WOOD-MAGIC DAM09-26-2022INFLOW (KAF)172279
4BITM8BITTERROOT-NEAR MISSOULA09-26-2022DISCHARGE (KAF)16920981
5BONM8BLACKFOOT-NEAR BONNER09-26-2022DISCHARGE (KAF)12213591
6BIGI1BOISE-AT GLENWOOD BRIDGE09-26-2022DISCHARGE (KAF)337246
7LUCI1BOISE-LUCKY PEAK DAM09-26-2022INFLOW (KAF)717892
8PARI1BOISE-NEAR PARMA09-26-2022DISCHARGE (KAF)15921176
9HOTI1BRUNEAU-NEAR HOT SPRINGS09-26-2022DISCHARGE (KAF)192190
10BULO3BULLY CREEK-BULLY CREEK DAM09-26-2022INFLOW (KAF)21177
11BUDW1BUMPING-BUMPING LAKE DAM09-26-2022INFLOW (KAF)223466
12CHDW1CHELAN-LAKE CHELAN DAM09-26-2022INFLOW (KAF)13018072
13ABOM8CLARK FORK-ABOVE MISSOULA09-26-2022DISCHARGE (KAF)31333095
14DLGM8CLARK FORK-AT DEER LODGE09-26-2022DISCHARGE (KAF)505099
15SRGM8CLARK FORK-AT ST REGIS09-26-2022DISCHARGE (KAF)59671084
16BELM8CLARK FORK-BELOW MISSOULA09-26-2022DISCHARGE (KAF)48354888
17CABI1CLARK FORK-CABINET GORGE DAM09-26-2022INFLOW (KAF)2482327076
18NOXM8CLARK FORK-NOXON RAPIDS DAM09-26-2022INFLOW (KAF)2266293477
19DRMM8CLARK FORK-NR DRUMMOND09-26-2022DISCHARGE (KAF)127126101
20CLUW1CLE ELUM-CLE ELUM LAKE09-26-2022INFLOW (KAF)7910476
21ORFI1CLEARWATER-AT OROFINO09-26-2022DISCHARGE (KAF)44659475
22SPDI1CLEARWATER-AT SPALDING09-26-2022DISCHARGE (KAF)906107684
23COEI1COEUR D ALENE-COEUR D ALENE LAKE09-26-2022INFLOW (KAF)27854851
24CIBW1COLUMBIA-AT INTL BOUNDARY09-26-2022DISCHARGE (KAF)179831984491
25BONO3COLUMBIA-BONNEVILLE DAM09-26-2022INFLOW (KAF)273083182486
26CHJW1COLUMBIA-CHIEF JOSEPH DAM09-26-2022INFLOW (KAF)195802124392
27GCDW1COLUMBIA-GRAND COULEE DAM09-26-2022INFLOW (KAF)187062036592
28JDAO3COLUMBIA-JOHN DAY DAM09-26-2022INFLOW (KAF)262182993088
29MCDW1COLUMBIA-MCNARY DAM09-26-2022INFLOW (KAF)253102904087
30PRWW1COLUMBIA-PRIEST RAPIDS DAM09-26-2022INFLOW (KAF)204762288789
31RRHW1COLUMBIA-ROCKY REACH DAM09-26-2022INFLOW (KAF)202412224091
32TDAO3COLUMBIA-THE DALLES DAM09-26-2022INFLOW (KAF)267343066887
33WANW1COLUMBIA-WANAPUM DAM09-26-2022INFLOW (KAF)204432281990
34WELW1COLUMBIA-WELLS DAM09-26-2022INFLOW (KAF)199282182991
35DEDI1DEADWOOD-NEAR LOWMAN09-26-2022INFLOW (KAF)151792
36MODO3DESCHUTES-AT MOODY NR BIGGS09-26-2022DISCHARGE (KAF)1058125884
37ARDW1ENTIAT-NEAR ARDENVOIR09-26-2022DISCHARGE (KAF)152461
38CHEI1FALL RIVER-NEAR CHESTER09-26-2022DISCHARGE (KAF)11011993
39CFMM8FLATHEAD-AT COLUMBIA FALLS09-26-2022DISCHARGE (KAF)85893092
40KERM8FLATHEAD-SELI’Š KSANKA QLISPE’ DAM09-26-2022INFLOW (KAF)966127176
41TRYO3GRANDE RONDE-TROY09-26-2022DISCHARGE (KAF)16524069
42REXI1HENRYS FORK-AT REXBURG09-26-2022DISCHARGE (KAF)38040295
43ANTI1HENRYS FORK-AT ST. ANTHONY09-26-2022DISCHARGE (KAF)30135086
44IPDI1HENRYS FORK-ISLAND PARK DAM09-26-2022INFLOW (KAF)10410995
45HODO3HOOD-NEAR TUCKER BRIDGE09-26-2022DISCHARGE (KAF)204175116
46SERO3JOHN DAY-AT SERVICE CK09-26-2022DISCHARGE (KAF)9212275
47KADW1KACHESS-KACHESS DAM09-26-2022INFLOW (KAF)334573
48LAUW1KETTLE-AT LAURIER09-26-2022DISCHARGE (KAF)9311282
49PITW1KLICKITAT-NEAR PITT09-26-2022DISCHARGE (KAF)21423392
50BFEI1KOOTENAI-AT BONNERS FERRY09-26-2022STAGE (FT)MMM
51LEOI1KOOTENAI-AT LEONIA09-26-2022DISCHARGE (KAF)26482644100
52LYDM8KOOTENAI-LIBBY DAM09-26-2022INFLOW (KAF)861101385
53LWRI1LITTLE WOOD-LITTLE WOOD DAM09-26-2022INFLOW (KAF)81263
54BERO3MALHEUR-AGENCY VALLEY DAM09-26-2022INFLOW (KAF)101472
55WRMO3MALHEUR-WARM SPRINGS DAM09-26-2022INFLOW (KAF)131873
56MYKO3MCKAY CREEK-NEAR PILOT ROCK09-26-2022DISCHARGE (KAF)1311113
57PATW1METHOW-NEAR PATEROS09-26-2022DISCHARGE (KAF)8910486
58WGCM8MF FLATHEAD-NEAR WEST GLACIER09-26-2022DISCHARGE (KAF)7417044
59CLFW1NACHES-NEAR CLIFFDEL09-26-2022DISCHARGE (KAF)8510184
60NACW1NACHES-NEAR NACHES09-26-2022DISCHARGE (KAF)5415634
61DWRI1NF CLEARWATER-DWORSHAK DAM09-26-2022INFLOW (KAF)27046958
62FCFM8NF FLATHEAD-NEAR COLUMBIA FALLS09-26-2022DISCHARGE (KAF)14319773
63MONO3NF JOHN DAY-AT MONUMENT09-26-2022DISCHARGE (KAF)446271
64CSDI1NF PAYETTE-CASCADE DAM09-26-2022INFLOW (KAF)678876
65TONW1OKANOGAN-NEAR TONASKET09-26-2022DISCHARGE (KAF)24128186
66OWYO3OWYHEE-OWYHEE DAM09-26-2022INFLOW (KAF)547671
67EMMI1PAYETTE-NEAR EMMETT09-26-2022DISCHARGE (KAF)22524691
68ALFW1PEND OREILLE-ALBENI FALLS DAM09-26-2022INFLOW (KAF)2827361278
69HOPI1PEND OREILLE-PEND OREILLE LAKE NR HOPE09-26-2022LAKE ELEVATION (FT)MMM
70PIHI1PORTNEUF-AT POCATELLO09-26-2022DISCHARGE (KAF)344479
71PRTI1PRIEST-NEAR PRIEST RIVER09-26-2022DISCHARGE (KAF)21323989
72RCCM8ROCK CREEK-NEAR CLINTON09-26-2022DISCHARGE (KAF)5050101
73WHBI1SALMON-AT WHITEBIRD09-26-2022DISCHARGE (KAF)939103791
74ARAI1SF BOISE-ANDERSON RANCH DAM09-26-2022INFLOW (KAF)616791
75HHWM8SF FLATHEAD-HUNGRY HORSE DAM09-26-2022INFLOW (KAF)14622465
76PLDI1SF SNAKE-PALISADES DAM09-26-2022INFLOW (KAF)60768688
77SIFI1SNAKE-AB EAGLE ROCK NR IDAHO FALLS09-26-2022DISCHARGE (KAF)835724115
78AFRI1SNAKE-AMERICAN FALLS RESERVOIR09-26-2022INFLOW (KAF)13811190116
79SNAI1SNAKE-AT BLACKFOOT09-26-2022DISCHARGE (KAF)706603117
80MILI1SNAKE-AT MILNER09-26-2022DISCHARGE (KAF)0480
81WEII1SNAKE-AT WEISER09-26-2022DISCHARGE (KAF)2580270196
82SWAI1SNAKE-BELOW SWAN FALLS09-26-2022DISCHARGE (KAF)1820185398
83BRNI1SNAKE-BROWNLEE DAM09-26-2022INFLOW (KAF)2745280298
84IHDW1SNAKE-ICE HARBOR DAM09-26-2022INFLOW (KAF)4356536381
85JLKW4SNAKE-JACKSON LAKE AT DAM09-26-2022INFLOW (KAF)9411184
86LGSW1SNAKE-LITTLE GOOSE DAM09-26-2022INFLOW (KAF)4335532881
87LGDW1SNAKE-LOWER GRANITE DAM09-26-2022INFLOW (KAF)4339528882
88LMNW1SNAKE-LOWER MONUMENTAL DAM09-26-2022INFLOW (KAF)4356534282
89ALPW4SNAKE-NEAR ALPINE09-26-2022DISCHARGE (KAF)39145786
90ANAW1SNAKE-NEAR ANATONE09-26-2022DISCHARGE (KAF)3432413983
91BFTI1SNAKE-NEAR BLACKFOOT09-26-2022DISCHARGE (KAF)727591123
92HEII1SNAKE-NEAR HEISE09-26-2022DISCHARGE (KAF)694560124
93JKSW4SNAKE-NEAR JACKSON09-26-2022DISCHARGE (KAF)33937989
94SHYI1SNAKE-NEAR SHELLEY09-26-2022DISCHARGE (KAF)819744110
95LLKW1SPOKANE-AT LONGLAKE09-26-2022INFLOW (KAF)60494264
96SPOW1SPOKANE-AT SPOKANE09-26-2022DISCHARGE (KAF)43077056
97SJMI1ST JOE-AT ST MARIES09-26-2022STAGE (FT)MMM
98SATI1ST MARIES-NEAR SANTA09-26-2022DISCHARGE (KAF)142851
99STRM8ST. REGIS-NEAR ST. REGIS09-26-2022DISCHARGE (KAF)212971
100TNAW1TEANAWAY-BELOW FORKS09-26-2022DISCHARGE (KAF)123139
101TEAI1TETON-NEAR ST. ANTHONY09-26-2022DISCHARGE (KAF)8910882
102RILW1TIETON-RIMROCK LAKE NEAR RIMROCK09-26-2022INFLOW (KAF)486574
103PDTO3UMATILLA-AT PENDLETON09-26-2022DISCHARGE (KAF)485390
104GIBO3UMATILLA-NEAR GIBBON09-26-2022DISCHARGE (KAF)222685
105UMAO3UMATILLA-NEAR UMATILLA09-26-2022DISCHARGE (KAF)8573116
106TCHW1WALLA WALLA-NEAR TOUCHET09-26-2022DISCHARGE (KAF)8481104
107WSRI1WEISER-NEAR WEISER09-26-2022DISCHARGE (KAF)315359
108PESW1WENATCHEE-AT PESHASTIN09-26-2022DISCHARGE (KAF)18029261
109UNDW1WHITE SALMON-NEAR UNDERWOOD09-26-2022DISCHARGE (KAF)195195100
110RIDI1WILLOW CREEK-RIRIE DAM09-26-2022INFLOW (KAF)1410133
111EASW1YAKIMA-AT EASTON09-26-2022DISCHARGE (KAF)536779
112KIOW1YAKIMA-AT KIONA09-26-2022DISCHARGE (KAF)46562475
113UMTW1YAKIMA-AT UMTANUM09-26-2022DISCHARGE (KAF)21127078
114KEDW1YAKIMA-KEECHELUS LAKE09-26-2022INFLOW (KAF)435086
115PARW1YAKIMA-NEAR PARKER09-26-2022DISCHARGE (KAF)28939274